{"data":{"norad_id":49175,"epoch":"2026-05-25T03:42:27.197280Z","epoch_age_seconds":58324,"freshness":"FRESH","line1":"1 49175U 21082AX  26145.15448145  .00000262  00000+0  30305-4 0  9993","line2":"2 49175  70.0003  82.8276 0002755 268.8919  91.1924 14.97522281257891","mean_motion":14.97522281,"eccentricity":0.0002755,"inclination_deg":70.0003,"raan_deg":82.8276,"arg_perigee_deg":268.8919,"mean_anomaly_deg":91.1924,"bstar":3.0305e-5,"rev_number":25789,"period_min":96.158836383951,"perigee_km":572.639351361,"apogee_km":576.47028455269,"semimajor_km":6952.6918179568,"source":"CELESTRAK","updated_at":"2026-05-25T13:38:16.792763Z"}}